Flag for Trinidad and Tobago Weather past 2 weeks in Port of Spain, Trinidad and Tobago

Now
79 °F

Passing clouds.


Feels Like: 82 °F
Forecast: 80 / 87 °F
Wind: No wind

Location: Piarco International Airport - Trinidad

Current Time: Aug 23, 2014 at 4:02:10 AM

Latest Report: Aug 23, 2014 at 3:00 AM


Visibility: N/A

Pressure: 29.86 "Hg

Humidity: 89%

Dew point: 75 °F

Location of Port of SpainLocation

Historic Weather in Port of Spain — Graph

°F

Port of Spain temperature yesterday

Maximum temperature yesterday: 91 °F (at 1:00 PM)
Minimum temperature yesterday: 77 °F (at 3:00 AM)
Average temperature yesterday: 83 °F

Past Weeks' High & Low Weather Summary

 TemperatureHumidityPressure
High95 °F (Aug 20, 1:00 PM)94% (Aug 8, 3:00 AM)30.01 "Hg (Aug 8, 3:00 AM)
Low73 °F (Aug 10, 6:00 AM)44% (Aug 20, 1:00 PM)29.80 "Hg (Aug 18, 4:00 PM)
Average82 °F78%29.92 "Hg
* Reported Aug 8 3:00 AM — Aug 23 3:00 AM, Port of Spain, Weather by CustomWeather, © 2014

Note: Actual official high and low records may vary slightly from our data, if they occured in-between our weather recording intervals... More about our weather records

Advertising

Port of Spain weather history for previous 24 hours

 ConditionsComfort  
Time TempWeatherWind HumidityBarometerVisibility
3:00 AM
Aug 23
79 °FPassing clouds.No wind89%29.86 "HgN/A
2:00 AM79 °FPassing clouds.No wind89%29.86 "HgN/A
1:00 AM79 °FPassing clouds.No wind89%29.89 "HgN/A
12:00 AM79 °FPassing clouds.No wind89%29.89 "HgN/A
11:00 PM
Aug 22
79 °FPassing clouds.No wind89%29.92 "HgN/A
10:00 PM81 °FPassing clouds.No wind84%29.92 "HgN/A
9:00 PM81 °FPassing clouds.6 mph84%29.92 "HgN/A
8:00 PM81 °FPassing clouds.3 mph84%29.89 "HgN/A
7:00 PM81 °FPassing clouds.5 mph79%29.86 "HgN/A
6:00 PM84 °FPassing clouds.12 mph70%29.86 "HgN/A
5:00 PM88 °FPassing clouds.14 mph62%29.83 "HgN/A
4:00 PM90 °FPassing clouds.7 mph59%29.83 "HgN/A
3:00 PM90 °FScattered clouds.10 mph59%29.83 "HgN/A
2:00 PM91 °FBroken clouds.10 mph56%29.86 "HgN/A
1:00 PM91 °FScattered clouds.12 mph56%29.89 "HgN/A
12:00 PM90 °FPartly sunny.13 mph59%29.92 "HgN/A
11:00 AM88 °FScattered clouds.15 mph62%29.95 "HgN/A
10:00 AM86 °FScattered clouds.10 mph62%29.95 "HgN/A
9:00 AM84 °FPassing clouds.8 mph94%29.95 "HgN/A
8:00 AM81 °FPassing clouds.No wind79%29.95 "HgN/A
7:00 AM77 °FPassing clouds.No wind89%29.92 "HgN/A
6:00 AM77 °FLight rain. Passing clouds.No wind89%29.92 "HgN/A
5:00 AM77 °FLight rain. Passing clouds.No wind89%29.89 "HgN/A
4:00 AM77 °FLight rain. Passing clouds.No wind89%29.89 "HgN/A
Weather by CustomWeather, © 2014

See weather overviewHow to use our weather pages